Year,Month,Day,Hour,Minute,Value (Times are PST for temperature in C)
2008,06,30,00,00,13.70
2008,06,30,00,01,13.70
2008,06,30,00,02,13.70
2008,06,30,00,03,13.70
2008,06,30,00,04,13.70
2008,06,30,00,05,13.80
2008,06,30,00,06,13.80
2008,06,30,00,07,13.90
2008,06,30,00,08,13.90
2008,06,30,00,09,14.00
2008,06,30,00,10,14.00
2008,06,30,00,11,14.00
2008,06,30,00,12,14.00
2008,06,30,00,13,14.00
2008,06,30,00,14,14.00
2008,06,30,00,15,14.00
2008,06,30,00,16,14.00
2008,06,30,00,17,14.00
2008,06,30,00,18,14.00
2008,06,30,00,19,14.00
2008,06,30,00,20,14.00
2008,06,30,00,21,14.00
2008,06,30,00,22,14.00
2008,06,30,00,23,14.00
2008,06,30,00,24,14.00
2008,06,30,00,25,14.00
2008,06,30,00,26,14.00
2008,06,30,00,27,14.00
2008,06,30,00,28,14.10
2008,06,30,00,29,14.10
2008,06,30,00,30,14.10
2008,06,30,00,31,14.10
2008,06,30,00,32,14.10
2008,06,30,00,33,14.20
2008,06,30,00,34,14.20
2008,06,30,00,35,14.20
2008,06,30,00,36,14.20
2008,06,30,00,37,14.20
2008,06,30,00,38,14.20
2008,06,30,00,39,14.10
2008,06,30,00,40,14.10
2008,06,30,00,41,14.00
2008,06,30,00,42,14.00
2008,06,30,00,43,14.00
2008,06,30,00,44,13.90
2008,06,30,00,45,13.90
2008,06,30,00,46,13.80
2008,06,30,00,47,13.80
2008,06,30,00,48,13.70
2008,06,30,00,49,13.70
2008,06,30,00,50,13.70
2008,06,30,00,51,13.70
2008,06,30,00,52,13.60
2008,06,30,00,53,13.60
2008,06,30,00,54,13.60
2008,06,30,00,55,13.50
2008,06,30,00,56,13.50
2008,06,30,00,57,13.40
2008,06,30,00,58,13.40
2008,06,30,00,59,13.40
2008,06,30,01,00,13.40
2008,06,30,01,01,13.40
2008,06,30,01,02,13.40
2008,06,30,01,03,13.40
2008,06,30,01,04,13.30
2008,06,30,01,05,13.30
2008,06,30,01,06,13.30
2008,06,30,01,07,13.30
2008,06,30,01,08,13.30
2008,06,30,01,09,13.30
2008,06,30,01,10,13.30
2008,06,30,01,11,13.30
2008,06,30,01,12,13.30
2008,06,30,01,13,13.30
2008,06,30,01,14,13.30
2008,06,30,01,15,13.30
2008,06,30,01,16,13.30
2008,06,30,01,17,13.30
2008,06,30,01,18,13.30
2008,06,30,01,19,13.30
2008,06,30,01,20,13.30
2008,06,30,01,21,13.40
2008,06,30,01,22,13.40
2008,06,30,01,23,13.40
2008,06,30,01,24,13.40
2008,06,30,01,25,13.40
2008,06,30,01,26,13.50
2008,06,30,01,27,13.50
2008,06,30,01,28,13.50
2008,06,30,01,29,13.50
2008,06,30,01,30,13.60
2008,06,30,01,31,13.60
2008,06,30,01,32,13.60
2008,06,30,01,33,13.70
2008,06,30,01,34,13.70
2008,06,30,01,35,13.70
2008,06,30,01,36,13.70
2008,06,30,01,37,13.70
2008,06,30,01,38,13.70
2008,06,30,01,39,13.70
2008,06,30,01,40,13.60
2008,06,30,01,41,13.50
2008,06,30,01,42,13.50
2008,06,30,01,43,13.40
2008,06,30,01,44,13.40
2008,06,30,01,45,13.30
2008,06,30,01,46,13.30
2008,06,30,01,47,13.30
2008,06,30,01,48,13.30
2008,06,30,01,49,13.20
2008,06,30,01,50,13.20
2008,06,30,01,51,13.20
2008,06,30,01,52,13.20
2008,06,30,01,53,13.10
2008,06,30,01,54,13.10
2008,06,30,01,55,13.10
2008,06,30,01,56,13.10
2008,06,30,01,57,13.10
2008,06,30,01,58,13.10
2008,06,30,01,59,13.10
2008,06,30,02,00,13.10
2008,06,30,02,01,13.10
2008,06,30,02,02,13.10
2008,06,30,02,03,13.10
2008,06,30,02,04,13.10
2008,06,30,02,05,13.10
2008,06,30,02,06,13.20
2008,06,30,02,07,13.20
2008,06,30,02,08,13.20
2008,06,30,02,09,13.20
2008,06,30,02,10,13.20
2008,06,30,02,11,13.20
2008,06,30,02,12,13.30
2008,06,30,02,13,13.30
2008,06,30,02,14,13.30
2008,06,30,02,15,13.30
2008,06,30,02,16,13.30
2008,06,30,02,17,13.30
2008,06,30,02,18,13.30
2008,06,30,02,19,13.30
2008,06,30,02,20,13.30
2008,06,30,02,21,13.30
2008,06,30,02,22,13.30
2008,06,30,02,23,13.30
2008,06,30,02,24,13.40
2008,06,30,02,25,13.40
2008,06,30,02,26,13.40
2008,06,30,02,27,13.40
2008,06,30,02,28,13.50
2008,06,30,02,29,13.50
2008,06,30,02,30,13.50
2008,06,30,02,31,13.60
2008,06,30,02,32,13.60
2008,06,30,02,33,13.60
2008,06,30,02,34,13.60
2008,06,30,02,35,13.70
2008,06,30,02,36,13.70
2008,06,30,02,37,13.70
2008,06,30,02,38,13.70
2008,06,30,02,39,13.70
2008,06,30,02,40,13.80
2008,06,30,02,41,13.80
2008,06,30,02,42,13.90
2008,06,30,02,43,13.90
2008,06,30,02,44,14.00
2008,06,30,02,45,14.00
2008,06,30,02,46,14.00
2008,06,30,02,47,14.10
2008,06,30,02,48,14.10
2008,06,30,02,49,14.20
2008,06,30,02,50,14.20
2008,06,30,02,51,14.20
2008,06,30,02,52,14.20
2008,06,30,02,53,14.20
2008,06,30,02,54,14.30
2008,06,30,02,55,14.30
2008,06,30,02,56,14.30
2008,06,30,02,57,14.40
2008,06,30,02,58,14.40
2008,06,30,02,59,14.40
2008,06,30,03,00,14.50
2008,06,30,03,01,14.50
2008,06,30,03,02,14.50
2008,06,30,03,03,14.50
2008,06,30,03,04,14.50
2008,06,30,03,05,14.50
2008,06,30,03,06,14.50
2008,06,30,03,07,14.50
2008,06,30,03,08,14.50
2008,06,30,03,09,14.50
2008,06,30,03,10,14.50
2008,06,30,03,11,14.50
2008,06,30,03,12,14.50
2008,06,30,03,13,14.50
2008,06,30,03,14,14.50
2008,06,30,03,15,14.50
2008,06,30,03,16,14.40
2008,06,30,03,17,14.40
2008,06,30,03,18,14.30
2008,06,30,03,19,14.30
2008,06,30,03,20,14.20
2008,06,30,03,21,14.20
2008,06,30,03,22,14.20
2008,06,30,03,23,14.20
2008,06,30,03,24,14.20
2008,06,30,03,25,14.20
2008,06,30,03,26,14.20
2008,06,30,03,27,14.20
2008,06,30,03,28,14.20
2008,06,30,03,29,14.20
2008,06,30,03,30,14.30
2008,06,30,03,31,14.40
2008,06,30,03,32,14.50
2008,06,30,03,33,14.60
2008,06,30,03,34,14.80
2008,06,30,03,35,14.90
2008,06,30,03,36,15.00
2008,06,30,03,37,15.10
2008,06,30,03,38,15.20
2008,06,30,03,39,15.30
2008,06,30,03,40,15.20
2008,06,30,03,41,15.10
2008,06,30,03,42,15.00
2008,06,30,03,43,15.00
2008,06,30,03,44,14.90
2008,06,30,03,45,14.90
2008,06,30,03,46,14.70
2008,06,30,03,47,14.70
2008,06,30,03,48,14.60
2008,06,30,03,49,14.50
2008,06,30,03,50,14.50
2008,06,30,03,51,14.40
2008,06,30,03,52,14.30
2008,06,30,03,53,14.30
2008,06,30,03,54,14.20
2008,06,30,03,55,14.20
2008,06,30,03,56,14.20
2008,06,30,03,57,14.10
2008,06,30,03,58,14.10
2008,06,30,03,59,14.00
2008,06,30,04,00,14.00
2008,06,30,04,01,13.90
2008,06,30,04,02,13.90
2008,06,30,04,03,13.90
2008,06,30,04,04,13.90
2008,06,30,04,05,13.90
2008,06,30,04,06,13.90
2008,06,30,04,07,13.90
2008,06,30,04,08,13.90
2008,06,30,04,09,13.90
2008,06,30,04,10,13.90
2008,06,30,04,11,13.90
2008,06,30,04,12,13.90
2008,06,30,04,13,13.90
2008,06,30,04,14,13.90
2008,06,30,04,15,13.90
2008,06,30,04,16,14.00
2008,06,30,04,17,14.00
2008,06,30,04,18,14.10
2008,06,30,04,19,14.20
2008,06,30,04,20,14.20
2008,06,30,04,21,14.20
2008,06,30,04,22,14.30
2008,06,30,04,23,14.30
2008,06,30,04,24,14.40
2008,06,30,04,25,14.40
2008,06,30,04,26,14.40
2008,06,30,04,27,14.40
2008,06,30,04,28,14.40
2008,06,30,04,29,14.40
2008,06,30,04,30,14.50
2008,06,30,04,31,14.50
2008,06,30,04,32,14.60
2008,06,30,04,33,14.60
2008,06,30,04,34,14.70
2008,06,30,04,35,14.70
2008,06,30,04,36,14.80
2008,06,30,04,37,14.80
2008,06,30,04,38,14.80
2008,06,30,04,39,14.80
2008,06,30,04,40,14.80
2008,06,30,04,41,14.70
2008,06,30,04,42,14.70
2008,06,30,04,43,14.70
2008,06,30,04,44,14.60
2008,06,30,04,45,14.60
2008,06,30,04,46,14.60
2008,06,30,04,47,14.60
2008,06,30,04,48,14.60
2008,06,30,04,49,14.60
2008,06,30,04,50,14.60
2008,06,30,04,51,14.50
2008,06,30,04,52,14.50
2008,06,30,04,53,14.50
2008,06,30,04,54,14.50
2008,06,30,04,55,14.40
2008,06,30,04,56,14.40
2008,06,30,04,57,14.40
2008,06,30,04,58,14.40
2008,06,30,04,59,14.40
2008,06,30,05,00,14.40
2008,06,30,05,01,14.30
2008,06,30,05,02,14.30
2008,06,30,05,03,14.30
2008,06,30,05,04,14.30
2008,06,30,05,05,14.20
2008,06,30,05,06,14.20
2008,06,30,05,07,14.20
2008,06,30,05,08,14.20
2008,06,30,05,09,14.20
2008,06,30,05,10,14.20
2008,06,30,05,11,14.20
2008,06,30,05,12,14.20
2008,06,30,05,13,14.20
2008,06,30,05,14,14.20
2008,06,30,05,15,14.20
2008,06,30,05,16,14.20
2008,06,30,05,17,14.10
2008,06,30,05,18,14.10
2008,06,30,05,19,14.10
2008,06,30,05,20,14.10
2008,06,30,05,21,14.10
2008,06,30,05,22,14.10
2008,06,30,05,23,14.10
2008,06,30,05,24,14.10
2008,06,30,05,25,14.10
2008,06,30,05,26,14.10
2008,06,30,05,27,14.10
2008,06,30,05,28,14.10
2008,06,30,05,29,14.10
2008,06,30,05,30,14.10
2008,06,30,05,31,14.10
2008,06,30,05,32,14.10
2008,06,30,05,33,14.10
2008,06,30,05,34,14.20
2008,06,30,05,35,14.20
2008,06,30,05,36,14.20
2008,06,30,05,37,14.20
2008,06,30,05,38,14.20
2008,06,30,05,39,14.20
2008,06,30,05,40,14.10
2008,06,30,05,41,14.10
2008,06,30,05,42,14.10
2008,06,30,05,43,14.10
2008,06,30,05,44,14.10
2008,06,30,05,45,14.10
2008,06,30,05,46,14.00
2008,06,30,05,47,14.00
2008,06,30,05,48,14.00
2008,06,30,05,49,13.90
2008,06,30,05,50,13.90
2008,06,30,05,51,13.90
2008,06,30,05,52,13.90
2008,06,30,05,53,13.90
2008,06,30,05,54,13.90
2008,06,30,05,55,13.80
2008,06,30,05,56,13.80
2008,06,30,05,57,13.80
2008,06,30,05,58,13.80
2008,06,30,05,59,13.80
2008,06,30,06,00,13.80
2008,06,30,06,01,13.70
2008,06,30,06,02,13.70
2008,06,30,06,03,13.70
2008,06,30,06,04,13.70
2008,06,30,06,05,13.70
2008,06,30,06,06,13.70
2008,06,30,06,07,13.70
2008,06,30,06,08,13.70
2008,06,30,06,09,13.70
2008,06,30,06,10,13.70
2008,06,30,06,11,13.70
2008,06,30,06,12,13.70
2008,06,30,06,13,13.70
2008,06,30,06,14,13.70
2008,06,30,06,15,13.70
2008,06,30,06,16,13.70
2008,06,30,06,17,13.70
2008,06,30,06,18,13.70
2008,06,30,06,19,13.70
2008,06,30,06,20,13.70
2008,06,30,06,21,13.70
2008,06,30,06,22,13.70
2008,06,30,06,23,13.80
2008,06,30,06,24,13.80
2008,06,30,06,25,13.80
2008,06,30,06,26,13.80
2008,06,30,06,27,13.80
2008,06,30,06,28,13.80
2008,06,30,06,29,13.80
2008,06,30,06,30,13.80
2008,06,30,06,31,13.80
2008,06,30,06,32,13.80
2008,06,30,06,33,13.90
2008,06,30,06,34,13.90
2008,06,30,06,35,13.90
2008,06,30,06,36,13.90
2008,06,30,06,37,13.90
2008,06,30,06,38,13.90
2008,06,30,06,39,14.00
2008,06,30,06,40,14.00
2008,06,30,06,41,14.00
2008,06,30,06,42,14.00
2008,06,30,06,43,14.00
2008,06,30,06,44,14.00
2008,06,30,06,45,14.10
2008,06,30,06,46,14.10
2008,06,30,06,47,14.10
2008,06,30,06,48,14.10
2008,06,30,06,49,14.10
2008,06,30,06,50,14.10
2008,06,30,06,51,14.10
2008,06,30,06,52,14.10
2008,06,30,06,53,14.10
2008,06,30,06,54,14.20
2008,06,30,06,55,14.20
2008,06,30,06,56,14.20
2008,06,30,06,57,14.20
2008,06,30,06,58,14.20
2008,06,30,06,59,14.20
2008,06,30,07,00,14.20
2008,06,30,07,01,14.30
2008,06,30,07,02,14.30
2008,06,30,07,03,14.30
2008,06,30,07,04,14.40
2008,06,30,07,05,14.40
2008,06,30,07,06,14.40
2008,06,30,07,07,14.40
2008,06,30,07,08,14.50
2008,06,30,07,09,14.50
2008,06,30,07,10,14.50
2008,06,30,07,11,14.50
2008,06,30,07,12,14.50
2008,06,30,07,13,14.40
2008,06,30,07,14,14.40
2008,06,30,07,15,14.30
2008,06,30,07,16,14.30
2008,06,30,07,17,14.20
2008,06,30,07,18,14.20
2008,06,30,07,19,14.20
2008,06,30,07,20,14.20
2008,06,30,07,21,14.10
2008,06,30,07,22,14.00
2008,06,30,07,23,14.00
2008,06,30,07,24,14.00
2008,06,30,07,25,13.90
2008,06,30,07,26,13.90
2008,06,30,07,27,13.90
2008,06,30,07,28,13.90
2008,06,30,07,29,13.80
2008,06,30,07,30,13.80
2008,06,30,07,31,13.80
2008,06,30,07,32,13.80
2008,06,30,07,33,13.80
2008,06,30,07,34,13.80
2008,06,30,07,35,13.90
2008,06,30,07,36,13.90
2008,06,30,07,37,13.80
2008,06,30,07,38,13.80
2008,06,30,07,39,13.70
2008,06,30,07,40,13.70
2008,06,30,07,41,13.60
2008,06,30,07,42,13.60
2008,06,30,07,43,13.60
2008,06,30,07,44,13.50
2008,06,30,07,45,13.50
2008,06,30,07,46,13.40
2008,06,30,07,47,13.40
2008,06,30,07,48,13.30
2008,06,30,07,49,13.30
2008,06,30,07,50,13.30
2008,06,30,07,51,13.20
2008,06,30,07,52,13.20
2008,06,30,07,53,13.10
2008,06,30,07,54,13.10
2008,06,30,07,55,13.00
2008,06,30,07,56,12.90
2008,06,30,07,57,12.90
2008,06,30,07,58,12.80
2008,06,30,07,59,12.80
2008,06,30,08,00,12.80
2008,06,30,08,01,12.80
2008,06,30,08,02,12.80
2008,06,30,08,03,12.80
2008,06,30,08,04,12.80
2008,06,30,08,05,12.80
2008,06,30,08,06,12.80
2008,06,30,08,07,12.80
2008,06,30,08,08,12.80
2008,06,30,08,09,12.80
2008,06,30,08,10,12.80
2008,06,30,08,11,12.80
2008,06,30,08,12,12.80
2008,06,30,08,13,12.80
2008,06,30,08,14,12.80
2008,06,30,08,15,12.80
2008,06,30,08,16,12.90
2008,06,30,08,17,12.90
2008,06,30,08,18,12.90
2008,06,30,08,19,12.90
2008,06,30,08,20,12.90
2008,06,30,08,21,12.90
2008,06,30,08,22,12.90
2008,06,30,08,23,12.90
2008,06,30,08,24,12.90
2008,06,30,08,25,13.00
2008,06,30,08,26,13.00
2008,06,30,08,27,13.00
2008,06,30,08,28,13.00
2008,06,30,08,29,13.10
2008,06,30,08,30,13.10
2008,06,30,08,31,13.10
2008,06,30,08,32,13.10
2008,06,30,08,33,13.20
2008,06,30,08,34,13.20
2008,06,30,08,35,13.20
2008,06,30,08,36,13.20
2008,06,30,08,37,13.30
2008,06,30,08,38,13.30
2008,06,30,08,39,13.30
2008,06,30,08,40,13.30
2008,06,30,08,41,13.30
2008,06,30,08,42,13.30
2008,06,30,08,43,13.20
2008,06,30,08,44,13.20
2008,06,30,08,45,13.20
2008,06,30,08,46,13.20
2008,06,30,08,47,13.20
2008,06,30,08,48,13.30
2008,06,30,08,49,13.30
2008,06,30,08,50,13.30
2008,06,30,08,51,13.40
2008,06,30,08,52,13.50
2008,06,30,08,53,13.50
2008,06,30,08,54,13.60
2008,06,30,08,55,13.70
2008,06,30,08,56,13.70
2008,06,30,08,57,13.80
2008,06,30,08,58,13.90
2008,06,30,08,59,14.00
2008,06,30,09,00,14.00
2008,06,30,09,01,14.10
2008,06,30,09,02,14.10
2008,06,30,09,03,14.20
2008,06,30,09,04,14.20
2008,06,30,09,05,14.20
2008,06,30,09,06,14.20
2008,06,30,09,07,14.30
2008,06,30,09,08,14.40
2008,06,30,09,09,14.50
2008,06,30,09,10,14.60
2008,06,30,09,11,14.60
2008,06,30,09,12,14.60
2008,06,30,09,13,14.70
2008,06,30,09,14,14.70
2008,06,30,09,15,14.80
2008,06,30,09,16,14.80
2008,06,30,09,17,14.90
2008,06,30,09,18,14.80
2008,06,30,09,19,14.80
2008,06,30,09,20,14.80
2008,06,30,09,21,14.80
2008,06,30,09,22,14.90
2008,06,30,09,23,14.90
2008,06,30,09,24,15.00
2008,06,30,09,25,15.00
2008,06,30,09,26,15.10
2008,06,30,09,27,15.20
2008,06,30,09,28,15.30
2008,06,30,09,29,15.30
2008,06,30,09,30,15.30
2008,06,30,09,31,15.30
2008,06,30,09,32,15.30
2008,06,30,09,33,15.30
2008,06,30,09,34,15.30
2008,06,30,09,35,15.40
2008,06,30,09,36,15.50
2008,06,30,09,37,15.50
2008,06,30,09,38,15.60
2008,06,30,09,39,15.70
2008,06,30,09,40,15.80
2008,06,30,09,41,15.80
2008,06,30,09,42,15.80
2008,06,30,09,43,16.00
2008,06,30,09,44,16.10
2008,06,30,09,45,16.10
2008,06,30,09,46,16.20
2008,06,30,09,47,16.20
2008,06,30,09,48,16.30
2008,06,30,09,49,16.30
2008,06,30,09,50,16.40
2008,06,30,09,51,16.50
2008,06,30,09,52,16.70
2008,06,30,09,53,16.80
2008,06,30,09,54,16.90
2008,06,30,09,55,17.00
2008,06,30,09,56,17.20
2008,06,30,09,57,17.30
2008,06,30,09,58,17.30
2008,06,30,09,59,17.40
2008,06,30,10,00,17.50
2008,06,30,10,01,17.60
2008,06,30,10,02,17.70
2008,06,30,10,03,17.70
2008,06,30,10,04,17.80
2008,06,30,10,05,17.90
2008,06,30,10,06,17.90
2008,06,30,10,07,17.90
2008,06,30,10,08,17.90
2008,06,30,10,09,17.90
2008,06,30,10,10,17.90
2008,06,30,10,11,17.90
2008,06,30,10,12,17.90
2008,06,30,10,13,17.90
2008,06,30,10,14,17.90
2008,06,30,10,15,17.90
2008,06,30,10,16,17.80
2008,06,30,10,17,17.80
2008,06,30,10,18,17.70
2008,06,30,10,19,17.70
2008,06,30,10,20,17.70
2008,06,30,10,21,17.70
2008,06,30,10,22,17.70
2008,06,30,10,23,17.60
2008,06,30,10,24,17.50
2008,06,30,10,25,17.40
2008,06,30,10,26,17.30
2008,06,30,10,27,17.30
2008,06,30,10,28,17.30
2008,06,30,10,29,17.30
2008,06,30,10,30,17.30
2008,06,30,10,31,17.40
2008,06,30,10,32,17.40
2008,06,30,10,33,17.50
2008,06,30,10,34,17.50
2008,06,30,10,35,17.50
2008,06,30,10,36,17.60
2008,06,30,10,37,17.70
2008,06,30,10,38,17.70
2008,06,30,10,39,17.80
2008,06,30,10,40,17.90
2008,06,30,10,41,17.90
2008,06,30,10,42,18.00
2008,06,30,10,43,18.10
2008,06,30,10,44,18.20
2008,06,30,10,45,18.40
2008,06,30,10,46,18.50
2008,06,30,10,47,18.60
2008,06,30,10,48,18.70
2008,06,30,10,49,18.80
2008,06,30,10,50,18.80
2008,06,30,10,51,18.70
2008,06,30,10,52,18.50
2008,06,30,10,53,18.40
2008,06,30,10,54,18.40
2008,06,30,10,55,18.40
2008,06,30,10,56,18.30
2008,06,30,10,57,18.30
2008,06,30,10,58,18.30
2008,06,30,10,59,18.30
2008,06,30,11,00,18.20
2008,06,30,11,01,18.30
2008,06,30,11,02,18.30
2008,06,30,11,03,18.30
2008,06,30,11,04,18.40
2008,06,30,11,05,18.40
2008,06,30,11,06,18.40
2008,06,30,11,07,18.30
2008,06,30,11,08,18.40
2008,06,30,11,09,18.40
2008,06,30,11,10,18.40
2008,06,30,11,11,18.40
2008,06,30,11,12,18.30
2008,06,30,11,13,18.30
2008,06,30,11,14,18.40
2008,06,30,11,15,18.50
2008,06,30,11,16,18.60
2008,06,30,11,17,18.60
2008,06,30,11,18,18.70
2008,06,30,11,19,18.90
2008,06,30,11,20,19.10
2008,06,30,11,21,19.30
2008,06,30,11,22,19.40
2008,06,30,11,23,19.40
2008,06,30,11,24,19.40
2008,06,30,11,25,19.40
2008,06,30,11,26,19.30
2008,06,30,11,27,19.10
2008,06,30,11,28,19.10
2008,06,30,11,29,19.00
2008,06,30,11,30,19.10
2008,06,30,11,31,19.10
2008,06,30,11,32,19.10
2008,06,30,11,33,19.10
2008,06,30,11,34,19.10
2008,06,30,11,35,19.20
2008,06,30,11,36,19.30
2008,06,30,11,37,19.40
2008,06,30,11,38,19.40
2008,06,30,11,39,19.40
2008,06,30,11,40,19.40
2008,06,30,11,41,19.40
2008,06,30,11,42,19.30
2008,06,30,11,43,19.30
2008,06,30,11,44,19.20
2008,06,30,11,45,19.10
2008,06,30,11,46,19.10
2008,06,30,11,47,19.10
2008,06,30,11,48,19.10
2008,06,30,11,49,19.10
2008,06,30,11,50,19.20
2008,06,30,11,51,19.20
2008,06,30,11,52,19.30
2008,06,30,11,53,19.40
2008,06,30,11,54,19.50
2008,06,30,11,55,19.60
2008,06,30,11,56,19.70
2008,06,30,11,57,19.80
2008,06,30,11,58,19.90
2008,06,30,11,59,19.90
2008,06,30,12,00,20.00
2008,06,30,12,01,20.10
2008,06,30,12,02,20.20
2008,06,30,12,03,20.20
2008,06,30,12,04,20.40
2008,06,30,12,05,20.50
2008,06,30,12,06,20.60
2008,06,30,12,07,20.70
2008,06,30,12,08,20.80
2008,06,30,12,09,20.90
2008,06,30,12,10,21.00
2008,06,30,12,11,21.10
2008,06,30,12,12,21.20
2008,06,30,12,13,21.30
2008,06,30,12,14,21.40
2008,06,30,12,15,21.50
2008,06,30,12,16,21.60
2008,06,30,12,17,21.60
2008,06,30,12,18,21.60
2008,06,30,12,19,21.60
2008,06,30,12,20,21.60
2008,06,30,12,21,21.50
2008,06,30,12,22,21.40
2008,06,30,12,23,21.50
2008,06,30,12,24,21.60
2008,06,30,12,25,21.70
2008,06,30,12,26,21.80
2008,06,30,12,27,21.80
2008,06,30,12,28,21.80
2008,06,30,12,29,21.80
2008,06,30,12,30,21.80
2008,06,30,12,31,21.90
2008,06,30,12,32,22.00
2008,06,30,12,33,22.10
2008,06,30,12,34,22.10
2008,06,30,12,35,22.00
2008,06,30,12,36,21.80
2008,06,30,12,37,21.70
2008,06,30,12,38,21.60
2008,06,30,12,39,21.50
2008,06,30,12,40,21.40
2008,06,30,12,41,21.30
2008,06,30,12,42,21.30
2008,06,30,12,43,21.30
2008,06,30,12,44,21.30
2008,06,30,12,45,21.30
2008,06,30,12,46,21.30
2008,06,30,12,47,21.20
2008,06,30,12,48,21.10
2008,06,30,12,49,21.10
2008,06,30,12,50,21.00
2008,06,30,12,51,21.00
2008,06,30,12,52,20.90
2008,06,30,12,53,20.90
2008,06,30,12,54,20.80
2008,06,30,12,55,20.80
2008,06,30,12,56,20.80
2008,06,30,12,57,20.90
2008,06,30,12,58,21.00
2008,06,30,12,59,21.00
2008,06,30,13,00,21.00
2008,06,30,13,01,21.00
2008,06,30,13,02,21.00
2008,06,30,13,03,21.00
2008,06,30,13,04,21.10
2008,06,30,13,05,21.30
2008,06,30,13,06,21.30
2008,06,30,13,07,21.30
2008,06,30,13,08,21.40
2008,06,30,13,09,21.40
2008,06,30,13,10,21.40
2008,06,30,13,11,21.30
2008,06,30,13,12,21.30
2008,06,30,13,13,21.30
2008,06,30,13,14,21.40
2008,06,30,13,15,21.40
2008,06,30,13,16,21.50
2008,06,30,13,17,21.60
2008,06,30,13,18,21.60
2008,06,30,13,19,21.60
2008,06,30,13,20,21.60
2008,06,30,13,21,21.70
2008,06,30,13,22,21.70
2008,06,30,13,23,21.80
2008,06,30,13,24,21.80
2008,06,30,13,25,21.80
2008,06,30,13,26,21.80
2008,06,30,13,27,21.80
2008,06,30,13,28,21.80
2008,06,30,13,29,21.80
2008,06,30,13,30,21.90
2008,06,30,13,31,21.90
2008,06,30,13,32,21.90
2008,06,30,13,33,21.80
2008,06,30,13,34,21.70
2008,06,30,13,35,21.60
2008,06,30,13,36,21.60
2008,06,30,13,37,21.50
2008,06,30,13,38,21.40
2008,06,30,13,39,21.40
2008,06,30,13,40,21.50
2008,06,30,13,41,21.60
2008,06,30,13,42,21.50
2008,06,30,13,43,21.40
2008,06,30,13,44,21.40
2008,06,30,13,45,21.40
2008,06,30,13,46,21.50
2008,06,30,13,47,21.60
2008,06,30,13,48,21.60
2008,06,30,13,49,21.60
2008,06,30,13,50,21.70
2008,06,30,13,51,21.70
2008,06,30,13,52,21.80
2008,06,30,13,53,21.80
2008,06,30,13,54,21.90
2008,06,30,13,55,21.90
2008,06,30,13,56,21.90
2008,06,30,13,57,21.90
2008,06,30,13,58,22.00
2008,06,30,13,59,22.00
2008,06,30,14,00,22.10
2008,06,30,14,01,22.10
2008,06,30,14,02,22.30
2008,06,30,14,03,22.30
2008,06,30,14,04,22.40
2008,06,30,14,05,22.50
2008,06,30,14,06,22.60
2008,06,30,14,07,22.70
2008,06,30,14,08,22.90
2008,06,30,14,09,22.90
2008,06,30,14,10,22.90
2008,06,30,14,11,23.00
2008,06,30,14,12,23.10
2008,06,30,14,13,23.20
2008,06,30,14,14,23.30
2008,06,30,14,15,23.30
2008,06,30,14,16,23.50
2008,06,30,14,17,23.60
2008,06,30,14,18,23.60
2008,06,30,14,19,23.70
2008,06,30,14,20,23.70
2008,06,30,14,21,23.80
2008,06,30,14,22,23.80
2008,06,30,14,23,23.90
2008,06,30,14,24,24.00
2008,06,30,14,25,24.10
2008,06,30,14,26,24.20
2008,06,30,14,27,24.30
2008,06,30,14,28,24.40
2008,06,30,14,29,24.50
2008,06,30,14,30,24.60
2008,06,30,14,31,24.60
2008,06,30,14,32,24.60
2008,06,30,14,33,24.70
2008,06,30,14,34,24.70
2008,06,30,14,35,24.70
2008,06,30,14,36,24.80
2008,06,30,14,37,24.90
2008,06,30,14,38,24.90
2008,06,30,14,39,25.00
2008,06,30,14,40,25.20
2008,06,30,14,41,25.30
2008,06,30,14,42,25.40
2008,06,30,14,43,25.40
2008,06,30,14,44,25.50
2008,06,30,14,45,25.50
2008,06,30,14,46,25.50
2008,06,30,14,47,25.50
2008,06,30,14,48,25.50
2008,06,30,14,49,25.60
2008,06,30,14,50,25.60
2008,06,30,14,51,25.60
2008,06,30,14,52,25.70
2008,06,30,14,53,25.80
2008,06,30,14,54,25.90
2008,06,30,14,55,26.00
2008,06,30,14,56,26.10
2008,06,30,14,57,26.20
2008,06,30,14,58,26.40
2008,06,30,14,59,26.50
2008,06,30,15,00,26.70
2008,06,30,15,01,26.70
2008,06,30,15,02,26.70
2008,06,30,15,03,26.70
2008,06,30,15,04,26.80
2008,06,30,15,05,26.90
2008,06,30,15,06,27.10
2008,06,30,15,07,27.10
2008,06,30,15,08,27.20
2008,06,30,15,09,27.20
2008,06,30,15,10,27.20
2008,06,30,15,11,27.30
2008,06,30,15,12,27.30
2008,06,30,15,13,27.30
2008,06,30,15,14,27.30
2008,06,30,15,15,27.30
2008,06,30,15,16,27.30
2008,06,30,15,17,27.30
2008,06,30,15,18,27.30
2008,06,30,15,19,27.30
2008,06,30,15,20,27.30
2008,06,30,15,21,27.30
2008,06,30,15,22,27.30
2008,06,30,15,23,27.30
2008,06,30,15,24,27.30
2008,06,30,15,25,27.30
2008,06,30,15,26,27.30
2008,06,30,15,27,27.30
2008,06,30,15,28,27.30
2008,06,30,15,29,27.30
2008,06,30,15,30,27.30
2008,06,30,15,31,27.30
2008,06,30,15,32,27.40
2008,06,30,15,33,27.60
2008,06,30,15,34,27.60
2008,06,30,15,35,27.50
2008,06,30,15,36,27.40
2008,06,30,15,37,27.40
2008,06,30,15,38,27.40
2008,06,30,15,39,27.40
2008,06,30,15,40,27.40
2008,06,30,15,41,27.40
2008,06,30,15,42,27.40
2008,06,30,15,43,27.50
2008,06,30,15,44,27.60
2008,06,30,15,45,27.60
2008,06,30,15,46,27.40
2008,06,30,15,47,27.40
2008,06,30,15,48,27.40
2008,06,30,15,49,27.30
2008,06,30,15,50,27.30
2008,06,30,15,51,27.20
2008,06,30,15,52,27.20
2008,06,30,15,53,27.20
2008,06,30,15,54,27.20
2008,06,30,15,55,27.20
2008,06,30,15,56,27.20
2008,06,30,15,57,27.20
2008,06,30,15,58,27.10
2008,06,30,15,59,26.90
2008,06,30,16,00,26.70
2008,06,30,16,01,26.70
2008,06,30,16,02,26.70
2008,06,30,16,03,26.70
2008,06,30,16,04,26.70
2008,06,30,16,05,26.60
2008,06,30,16,06,26.50
2008,06,30,16,07,26.40
2008,06,30,16,08,26.40
2008,06,30,16,09,26.40
2008,06,30,16,10,26.50
2008,06,30,16,11,26.60
2008,06,30,16,12,26.60
2008,06,30,16,13,26.60
2008,06,30,16,14,26.60
2008,06,30,16,15,26.60
2008,06,30,16,16,26.60
2008,06,30,16,17,26.60
2008,06,30,16,18,26.60
2008,06,30,16,19,26.40
2008,06,30,16,20,26.30
2008,06,30,16,21,26.30
2008,06,30,16,22,26.30
2008,06,30,16,23,26.30
2008,06,30,16,24,26.30
2008,06,30,16,25,26.20
2008,06,30,16,26,26.20
2008,06,30,16,27,26.20
2008,06,30,16,28,26.20
2008,06,30,16,29,26.30
2008,06,30,16,30,26.30
2008,06,30,16,31,26.40
2008,06,30,16,32,26.50
2008,06,30,16,33,26.60
2008,06,30,16,34,26.60
2008,06,30,16,35,26.70
2008,06,30,16,36,26.80
2008,06,30,16,37,26.90
2008,06,30,16,38,26.90
2008,06,30,16,39,26.90
2008,06,30,16,40,27.00
2008,06,30,16,41,27.10
2008,06,30,16,42,27.10
2008,06,30,16,43,27.10
2008,06,30,16,44,27.00
2008,06,30,16,45,26.80
2008,06,30,16,46,26.80
2008,06,30,16,47,26.80
2008,06,30,16,48,26.70
2008,06,30,16,49,26.80
2008,06,30,16,50,26.80
2008,06,30,16,51,26.90
2008,06,30,16,52,27.00
2008,06,30,16,53,27.10
2008,06,30,16,54,27.10
2008,06,30,16,55,27.20
2008,06,30,16,56,27.20
2008,06,30,16,57,27.20
2008,06,30,16,58,27.30
2008,06,30,16,59,27.20
2008,06,30,17,00,27.20
2008,06,30,17,01,27.10
2008,06,30,17,02,27.10
2008,06,30,17,03,27.00
2008,06,30,17,04,26.90
2008,06,30,17,05,26.80
2008,06,30,17,06,26.70
2008,06,30,17,07,26.70
2008,06,30,17,08,26.70
2008,06,30,17,09,26.70
2008,06,30,17,10,26.70
2008,06,30,17,11,26.70
2008,06,30,17,12,26.80
2008,06,30,17,13,26.80
2008,06,30,17,14,26.90
2008,06,30,17,15,27.00
2008,06,30,17,16,27.10
2008,06,30,17,17,27.20
2008,06,30,17,18,27.20
2008,06,30,17,19,27.20